Flag for Bosnia-Herzegovina Weather past 2 weeks in Sarajevo, Bosnia-Herzegovina

Now
73 °F

Passing clouds.


Feels Like: 76 °F
Forecast: 59 / 80 °F
Wind: 2 mph from North

Location: Sarajevo / Butmir

Current Time: Aug 22, 2014 at 12:15:37 PM

Latest Report: Aug 22, 2014 at 12:00 PM


Visibility: N/A

Pressure: 30.04 "Hg

Humidity: 65%

Dew point: 61 °F

Location of SarajevoLocation

Historic Weather in Sarajevo — Graph

°F

Sarajevo temperature yesterday

Maximum temperature yesterday: 79 °F (at 10:30 AM)
Minimum temperature yesterday: 54 °F (at 4:00 AM)
Average temperature yesterday: 63 °F

Past Weeks' High & Low Weather Summary

 TemperatureHumidityPressure
High91 °F (Aug 12, 4:30 PM)100% (Aug 8, 12:00 AM)30.12 "Hg (Aug 8, 12:00 AM)
Low48 °F (Aug 18, 4:00 AM)26% (Aug 13, 2:00 PM)29.83 "Hg (Aug 14, 11:00 AM)
Average69 °F72%30.01 "Hg
* Reported Aug 7 11:00 AM — Aug 22 11:30 AM, Sarajevo, Weather by CustomWeather, © 2014

Note: Actual official high and low records may vary slightly from our data, if they occured in-between our weather recording intervals... More about our weather records

Advertising

Sarajevo weather history for previous 24 hours

 ConditionsComfort  
Time TempWeatherWind HumidityBarometerVisibility
11:30 AM
Aug 22
72 °FPassing clouds.2 mph69%30.04 "HgN/A
11:00 AM72 °FPassing clouds.1 mph69%30.07 "HgN/A
10:30 AM70 °FPassing clouds.2 mph73%30.07 "HgN/A
10:00 AM68 °FPassing clouds.2 mph73%30.07 "HgN/A
9:30 AM68 °FPassing clouds.1 mph78%30.07 "HgN/A
9:00 AM63 °FPassing clouds.1 mph94%30.07 "HgN/A
8:30 AM63 °FPassing clouds.2 mph94%30.07 "HgN/A
8:00 AM61 °FPassing clouds.5 mph100%30.07 "HgN/A
7:30 AM61 °FPassing clouds.2 mph100%30.07 "HgN/A
7:00 AM59 °FPassing clouds.2 mph100%30.07 "HgN/A
6:30 AM59 °FPassing clouds.2 mph100%30.07 "HgN/A
6:00 AM59 °FPassing clouds.1 mph94%30.07 "HgN/A
5:30 AM61 °FPassing clouds.2 mph94%30.07 "Hg4 mi
5:00 AM61 °FLight rain. Passing clouds.5 mph100%30.07 "Hg4 mi
4:00 AM61 °FThunderstorms. Passing clouds.3 mph100%30.07 "Hg3 mi
3:00 AM61 °FThunderstorms. Partly cloudy.1 mph94%30.09 "Hg2 mi
2:00 AM61 °FThunderstorms. Partly cloudy.3 mph94%30.09 "Hg3 mi
1:30 AM61 °FThunderstorms. Passing clouds.No wind94%30.07 "Hg4 mi
1:00 AM61 °FPassing clouds.No wind94%30.07 "HgN/A
12:00 AM61 °FPassing clouds.No wind94%30.09 "HgN/A
11:00 PM
Aug 21
61 °FPassing clouds.1 mph94%30.09 "HgN/A
10:30 PM61 °FClear.No wind94%30.09 "Hg10 mi
10:00 PM61 °FClear.1 mph94%30.09 "Hg10 mi
9:30 PM63 °FClear.2 mph94%30.09 "Hg10 mi
9:00 PM63 °FClear.2 mph94%30.07 "Hg10 mi
8:30 PM64 °FSunny.1 mph88%30.07 "Hg10 mi
8:00 PM64 °FSunny.1 mph88%30.07 "Hg10 mi
7:30 PM66 °FSunny.2 mph83%30.04 "Hg10 mi
7:00 PM66 °FPassing clouds.3 mph83%30.04 "HgN/A
6:30 PM70 °FPassing clouds.1 mph73%30.04 "HgN/A
6:00 PM70 °FPassing clouds.1 mph73%30.04 "HgN/A
5:30 PM70 °FPassing clouds.2 mph73%30.07 "HgN/A
5:00 PM68 °FPassing clouds.2 mph78%30.07 "HgN/A
4:30 PM68 °FPassing clouds.2 mph78%30.04 "HgN/A
4:00 PM66 °FScattered clouds.5 mph83%30.04 "HgN/A
3:30 PM64 °FLight rain. Partly sunny.5 mph88%30.04 "HgN/A
3:00 PM63 °FScattered clouds.7 mph94%30.07 "HgN/A
2:30 PM63 °FThunderstorms. Partly sunny.3 mph88%30.07 "HgN/A
2:00 PM63 °FThunderstorms. Partly sunny.2 mph88%30.09 "Hg5 mi
1:30 PM63 °FThunderstorms. Fog.5 mph88%30.09 "Hg3 mi
1:00 PM64 °FThunderstorms. Partly sunny.6 mph78%30.09 "HgN/A
12:30 PM64 °FLight rain. Partly sunny.8 mph83%30.07 "HgN/A
12:00 PM68 °FLight rain. Partly sunny.9 mph73%30.07 "HgN/A
Weather by CustomWeather, © 2014

See weather overviewHow to use our weather pages